Regional Weather Roundup
Issued by NWS

Home | Current Version | Previous Version | Graphics & Text | Print | Product List | Glossary On
Versions: 1 2 3 4 5 6 7 8 9 10 11 12 13 14 15 16 17 18 19 20 21 22 23 24 25 26 27 28 29 30 31 32 33 34 35 36 37 38 39 40 41 42 43 44 45 46 47 48 49 50
000
ASUS45 KBOU 251707
RWRCO

WEATHER ROUNDUP FOR COLORADO
NATIONAL WEATHER SERVICE DENVER/BOULDER CO
1100 AM MDT FRI JUL 25 2014

NOTE: "FAIR" INDICATES FEW OR NO CLOUDS BELOW 12000 FEET WITH NO
SIGNIFICANT WEATHER AND/OR OBSTRUCTIONS TO VISIBILITY.

COZ001>005-013-030-031-251800-
...NORTHWEST COLORADO...

CITY           SKY/WX    TMP DP  RH WIND       PRES   REMARKS
CRAIG          MOSUNNY   72  56  57 N3        30.20F
HAYDEN         MOSUNNY   79  50  36 NE8       30.22F
MEEKER         SUNNY     81  50  33 SW5       30.22F
MOUNT WERNER   NOT AVBL
STEAMBOAT SPGS MOSUNNY   75  53  45 CALM      30.26F
WALDEN         PTSUNNY   73  43  33 S13G23    30.34S
$$

COZ006>008-011-251800-
...WEST CENTRAL VALLEYS...

CITY           SKY/WX    TMP DP  RH WIND       PRES   REMARKS
GRAND JUNCTION PTSUNNY   82  51  34 SE14      30.14F
MONTROSE       PTSUNNY   77  54  44 NE3       30.26F
EAGLE          MOSUNNY   70  52  52 CALM      30.31F
RIFLE          SUNNY     81  50  33 NE6       30.19F
DELTA          PTSUNNY   78  54  43 NE7       30.21F
NUCLA          PTSUNNY   79  45  29 SE3       30.29F
$$

COZ017>023-064>068-251800-
...SOUTHWEST COLORADO...

CITY           SKY/WX    TMP DP  RH WIND       PRES   REMARKS
DURANGO        MOSUNNY   80  46  30 S5        30.30F
CORTEZ         CLOUDY    84  49  29 W6        30.25S
PAGOSA SPRINGS MOSUNNY   76  43  29 S8        30.39F
TELLURIDE      LGT RAIN  63  52  67 CALM      30.51S
WOLF CREEK PAS NOT AVBL
$$

COZ009-010-012-014-032>034-037-058>063-251800-
...CENTRAL COLORADO...

CITY           SKY/WX    TMP DP  RH WIND       PRES   REMARKS
ASPEN          MOSUNNY   72  50  45 N7        30.35F
BUENA VISTA    SUNNY     77  43  30 E8        30.36F
COPPER MTN     PTSUNNY   59  37  44 W16       30.70S
BERTHOUD PASS  PTSUNNY   52  37  58 W12G20    30.74S
COTTONWOOD PAS PTSUNNY   73  36  25 W10G17    30.52F
GUNNISON       SUNNY     70  48  46 W3        30.42F
KREMMLING      MOSUNNY   73  45  35 CALM      30.33F
LEADVILLE      MOSUNNY   69  40  34 N12       30.51S
MONARCH PASS   SUNNY     55  43  62 W20       30.81S
SALIDA         SUNNY    N/A N/A N/A N3        30.39F
SUNLIGHT       MOSUNNY   68  48  49 CALM      30.62R
WILKERSON PASS PTSUNNY   66  39  37 W6        30.66S
$$

COZ069>075-251800-
...SAN LUIS VALLEY/SANGRE DE CRISTO MOUNTAINS...

CITY           SKY/WX    TMP DP  RH WIND       PRES   REMARKS
ALAMOSA        MOSUNNY   75  49  39 VRB5      30.35F
LA VETA PASS   MOSUNNY   68  43  40 SW12G24   30.55R
SAGUACHE       MOSUNNY   72  50  46 CALM      30.39F
$$

COZ035-036-038>040-251800-
...NORTHERN COLORADO FRONT RANGE...

CITY           SKY/WX    TMP DP  RH WIND       PRES   REMARKS
DENVER INTL AP PTSUNNY   91  44  19 MISG      30.10F
DMNS CITY PARK   N/A     90  46  21 SE6G12    30.10S
AURORA         MOSUNNY   87  47  24 S7        30.14S
FRONT RANGE AP PTSUNNY   91  46  21 CALM      30.13R
ERIE MUNI ARPT SUNNY     91  44  19 S8        30.08S
BOULDER MUN AP SUNNY     91  46  21 SE5       30.08F
CENTENNIAL     MOSUNNY   87  42  20 S9        30.15S
BROOMFIELD     MOSUNNY   90  45  20 SE10      30.13S
FORT COLLINS   SUNNY     84  54  34 E8        30.08S
LONGMONT       SUNNY     93  50  23 E6        30.08F
$$

COZ041-046-047-076>085-087-088-251800-
...PIKES PEAK/PALMER DIVIDE AND SOUTHERN FOOTHILLS...

CITY           SKY/WX    TMP DP  RH WIND       PRES   REMARKS
COLO. SPRINGS  PTSUNNY   88  46  23 NE12      30.19S
A. F. ACADEMY  SUNNY     84  44  24 NE8       30.22R
ELLICOTT       NOT AVBL
FALCON         SUNNY     83  46  27 NE9       30.26S
FORT CARSON    SUNNY     89  47  23 VRB7G17   30.16S
LIMON          MOSUNNY   89  47  23 N16G23    30.11S
MONUMENT HILL  MOSUNNY   81  43  26 E6        30.26S
TRINIDAD       SUNNY     90  45  21 VRB5      30.14F
$$

COZ042>045-048>051-090-091-251800-
...NORTHEAST COLORADO...

CITY           SKY/WX    TMP DP  RH WIND       PRES   REMARKS
GREELEY ARPT   MOSUNNY   84  57  39 E10       30.07F
AKRON          MOSUNNY   85  55  35 N15       30.06R
BURLINGTON     MOSUNNY   88  54  31 N15       30.02R
WRAY             N/A     84  59  42 N14G20    29.99S
STERLING       MOSUNNY   82  63  51 NE10      30.01F
HOLYOKE        MOSUNNY   84  57  39 N14G22    30.00S
FORT MORGAN    MOSUNNY   87  52  30 E8        30.06S
$$

COZ086-089-092>099-251800-
...SOUTHEAST COLORADO...

CITY           SKY/WX    TMP DP  RH WIND       PRES   REMARKS
PUEBLO         MOSUNNY   93  46  19 E8        30.05S
LA JUNTA       MOSUNNY   93  52  24 NW13      30.01S
LAMAR          SUNNY     93  53  25 W7        29.95S
SPRINGFIELD      N/A     93  50  23 SW7       30.01F
$$


USA.gov is the U.S. government's official web portal to all federal, state and local government web resources and services.